Kahului, HI

2:08 AM HST on May 27, 2018 (GMT -1000)
Kahului

Weather History for PHOG - February, 2014

Change the Weather History Date:

Friday, February 28, 2014

  Actual Average Record
Temperature  
Mean Temperature 72 °F -  
Max Temperature 84 °F - 89 °F (1951)
Min Temperature 60 °F - 53 °F (2002)
Cooling Degree Days 7    
Month to date cooling degree days 276  
Year to date cooling degree days 511  
Growing Degree Days 21 (Base 50)    
Moisture  
Dew Point 64 °F    
Average Humidity 74    
Maximum Humidity 97    
Minimum Humidity 51    
Precipitation  
Precipitation 0.02 in - 2.13 in (1990)
Month to date precipitation 2.60  
Year to date precipitation 6.65  
Snow  
Snow 0.00 in - - ()
Month to date snowfall 0.0  
Snow Depth 0.00 in    
Sea Level Pressure  
Sea Level Pressure 29.95 in    
Wind  
Wind Speed 9 mph (South)    
Max Wind Speed 23 mph    
Max Gust Speed 26 mph    
Visibility 10 miles    
Events Rain    
T = Trace of Precipitation, MM = Missing Value Source: NWS Daily Summary

Daily Weather History Graph

Daily Weather History Graph

Search for Another Location

Airport or City:

Astronomy

Feb. 28, 2014 Rise Set
Actual Time 6:46 AM HST 6:30 PM HST
Civil Twilight 6:24 AM HST 6:52 PM HST
Nautical Twilight 5:58 AM HST 7:18 PM HST
Astronomical Twilight 5:32 AM HST 7:43 PM HST
Moon 6:08 AM HST (2/28) 6:15 PM HST (2/28)
Length of Visible Light 12h 27m
Length of Day
11h 43m
Waning Crescent, 0% of the Moon is Illuminated
Feb 28
Waning Crescent
Feb 28
New
Mar 8
First Quarter
Mar 16
Full
Mar 23
Last Quarter

Hourly Weather History & Observations

Time (HST) Temp. Heat Index Dew Point Humidity Pressure Visibility Wind Dir Wind Speed Gust Speed Precip Events Conditions
12:54 AM 63.0 °F - 59.0 °F 87% 30.00 in 10.0 mi SSE 5.8 mph - N/A   Clear
1:54 AM 62.1 °F - 59.0 °F 90% 29.98 in 10.0 mi SSW 3.5 mph - N/A   Clear
2:54 AM 61.0 °F - 57.9 °F 90% 29.96 in 10.0 mi SSE 3.5 mph - N/A   Clear
3:54 AM 61.0 °F - 59.0 °F 93% 29.94 in 10.0 mi SSE 4.6 mph - N/A   Clear
4:54 AM 61.0 °F - 57.9 °F 90% 29.94 in 10.0 mi Calm Calm - N/A   Clear
5:54 AM 60.1 °F - 57.9 °F 93% 29.96 in 10.0 mi Calm Calm - N/A   Clear
6:54 AM 62.1 °F - 57.9 °F 86% 29.96 in 10.0 mi SE 6.9 mph - N/A   Clear
7:54 AM 66.0 °F - 62.1 °F 87% 29.97 in 10.0 mi Calm Calm - N/A   Clear
8:54 AM 73.9 °F - 62.1 °F 66% 29.99 in 10.0 mi Calm Calm - N/A   Partly Cloudy
9:54 AM 78.1 °F - 61.0 °F 56% 30.00 in 10.0 mi North 5.8 mph - N/A   Partly Cloudy
10:54 AM 82.0 °F 83.0 °F 62.1 °F 51% 29.99 in 10.0 mi SSW 16.1 mph - N/A   Partly Cloudy
11:54 AM 82.9 °F 84.4 °F 64.0 °F 53% 29.98 in 10.0 mi Variable 4.6 mph - N/A   Partly Cloudy
12:54 PM 82.9 °F 84.0 °F 63.0 °F 51% 29.95 in 10.0 mi South 16.1 mph - N/A   Scattered Clouds
1:54 PM 82.0 °F 83.4 °F 64.0 °F 54% 29.93 in 10.0 mi SSW 15.0 mph - N/A   Mostly Cloudy
2:54 PM 80.1 °F 81.7 °F 64.0 °F 58% 29.91 in 10.0 mi SSW 15.0 mph - N/A   Mostly Cloudy
3:54 PM 75.9 °F - 66.0 °F 71% 29.91 in 10.0 mi South 12.7 mph - N/A   Overcast
4:32 PM 73.4 °F - 69.8 °F 88% 29.90 in 2.0 mi SSW 9.2 mph - 0.01 in Rain Light Rain
4:49 PM 73.4 °F - 69.8 °F 88% 29.90 in 5.0 mi SSW 10.4 mph - 0.01 in   Overcast
4:54 PM 73.0 °F - 70.0 °F 90% 29.91 in 7.0 mi SSW 10.4 mph - 0.01 in   Overcast
5:54 PM 73.0 °F - 68.0 °F 84% 29.91 in 10.0 mi SW 8.1 mph 16.1 mph 0.01 in   Overcast
6:54 PM 72.0 °F - 68.0 °F 87% 29.92 in 10.0 mi SSW 13.8 mph - N/A   Scattered Clouds
7:54 PM 72.0 °F - 68.0 °F 87% 29.93 in 10.0 mi South 11.5 mph - N/A   Mostly Cloudy
8:54 PM 72.0 °F - 68.0 °F 87% 29.95 in 10.0 mi South 19.6 mph - N/A   Overcast
9:54 PM 71.1 °F - 69.1 °F 93% 29.97 in 10.0 mi South 5.8 mph - 0.00 in   Overcast
10:54 PM 71.1 °F - 66.0 °F 84% 29.96 in 10.0 mi South 11.5 mph - N/A   Overcast
11:54 PM 72.0 °F - 66.0 °F 81% 29.96 in 10.0 mi South 13.8 mph - N/A   Overcast